Location: Hamayl? Da??
(36.7028°N, 30.1716°E)
Time: 07:15:18
(UTC+00:00)

SPOT 3 Rocket - Pass Details

Date: 04 August 2024
Orbit: 775 x 793 km, 98.6° (Epoch: 10 September)

Event Time Altitude Azimuth Distance (km) Brightness Sun altitude
Exits shadow 20:12:09 41° 263° (W) 1,134 4.4 -30.1°
Drops below altitude 10° 20:17:00 10° 332° (NNW) 2,364 6.9 -30.6°
Sets 20:19:28 0° 339° (NNW) 3,296 7.9 -30.8°
